Location: Hamburg
(53.5500°N, 10.0000°E)
Time: 22:53:24
(UTC+02:00)

A-11 Canister half - All Passes

Search period start: 29 July 2014 00:00
Search period end: 08 August 2014 00:00
Orbit: 1527 x 1683 km, 47.3° (Epoch: 26 July)

Date Brightness Start Highest point End Pass type
(mag) Time Alt. Az. Time Alt. Az. Time Alt. Az.
29 Jul - 09:17:39 10° SSE 09:23:20 17° SE 09:28:58 10° E daylight
29 Jul - 11:17:09 10° SW 11:26:19 41° SSE 11:35:19 10° E daylight
29 Jul - 13:20:34 10° WSW 13:30:24 61° S 13:39:58 10° E daylight
29 Jul - 15:25:10 10° W 15:34:45 54° SSW 15:44:01 10° SE daylight
29 Jul - 17:30:21 10° W 17:38:19 29° SW 17:46:04 10° SSE daylight
30 Jul - 08:56:33 10° SSE 09:01:54 16° SE 09:07:13 10° E daylight
30 Jul - 10:55:43 10° SSW 11:04:50 40° SSE 11:13:48 10° E daylight
30 Jul - 12:59:03 10° WSW 13:08:53 60° S 13:18:28 10° E daylight
30 Jul - 15:03:37 10° W 15:13:15 55° SSW 15:22:34 10° ESE daylight
30 Jul - 17:08:45 10° W 17:16:52 30° SW 17:24:46 10° SSE daylight
31 Jul - 08:35:30 10° SSE 08:40:29 15° SE 08:45:27 10° E daylight
31 Jul - 10:34:18 10° SSW 10:43:21 39° SSE 10:52:16 10° E daylight
31 Jul - 12:37:32 10° WSW 12:47:22 60° S 12:56:58 10° E daylight
31 Jul - 14:42:05 10° W 14:51:45 56° SSW 15:01:07 10° ESE daylight
31 Jul - 16:47:10 10° W 16:55:25 32° SW 17:03:28 10° SSE daylight
01 Aug - 08:14:30 10° SSE 08:19:04 14° SE 08:23:37 10° E daylight
01 Aug - 10:12:53 10° SSW 10:21:52 38° SSE 10:30:44 10° E daylight
01 Aug - 12:16:01 10° WSW 12:25:51 59° S 12:35:28 10° E daylight
01 Aug - 14:20:32 10° W 14:30:15 57° SSW 14:39:40 10° ESE daylight
01 Aug - 16:25:35 10° W 16:33:58 33° SW 16:42:08 10° SSE daylight
02 Aug - 07:53:34 10° SSE 07:57:39 13° SE 08:01:44 10° E daylight
02 Aug - 09:51:29 10° SSW 10:00:23 37° SE 10:09:11 10° E daylight
02 Aug - 11:54:30 10° WSW 12:04:20 59° S 12:13:58 10° E daylight
02 Aug - 13:58:59 10° W 14:08:44 57° SSW 14:18:12 10° ESE daylight
02 Aug - 16:04:00 10° W 16:12:31 34° SW 16:20:48 10° SSE daylight
02 Aug - 18:13:06 10° WSW 18:14:59 11° WSW 18:16:50 10° SW daylight
03 Aug - 07:32:44 10° SE 07:36:15 12° ESE 07:39:45 10° ESE daylight
03 Aug - 09:30:06 10° SSW 09:38:54 36° SE 09:47:39 10° E daylight
03 Aug - 11:32:59 10° WSW 11:42:49 58° SSE 11:52:28 10° E daylight
03 Aug - 13:37:27 10° W 13:47:14 58° SSW 13:56:44 10° ESE daylight
03 Aug - 15:42:25 10° W 15:51:04 35° SW 15:59:28 10° SSE daylight
03 Aug - 17:50:43 10° WSW 17:53:35 12° WSW 17:56:26 10° SW daylight
04 Aug - 07:12:02 10° SE 07:14:50 11° ESE 07:17:37 10° ESE daylight
04 Aug - 09:08:42 10° SSW 09:17:26 35° SE 09:26:05 10° E daylight
04 Aug - 11:11:29 10° WSW 11:21:18 58° SSE 11:30:57 10° E daylight
04 Aug - 13:15:54 10° W 13:25:43 59° SSW 13:35:16 10° ESE daylight
04 Aug - 15:20:51 10° W 15:29:36 36° SW 15:38:07 10° SSE daylight
04 Aug - 17:28:37 10° WSW 17:32:12 13° WSW 17:35:45 10° SW daylight
05 Aug - 06:51:41 10° SE 06:53:26 11° ESE 06:55:11 10° ESE daylight
05 Aug - 08:47:20 10° SSW 08:55:58 34° SE 09:04:32 10° E daylight
05 Aug - 10:49:59 10° WSW 10:59:47 57° SSE 11:09:27 10° E daylight
05 Aug - 12:54:22 10° W 13:04:12 59° S 13:13:47 10° ESE daylight
05 Aug - 14:59:17 10° W 15:08:08 38° SW 15:16:45 10° SSE daylight
05 Aug - 17:06:38 10° W 17:10:48 13° SW 17:14:55 10° SSW daylight
06 Aug - 08:25:58 10° SSW 08:34:29 32° SE 08:42:58 10° E daylight
06 Aug - 10:28:29 10° WSW 10:38:16 56° SSE 10:47:56 10° E daylight
06 Aug - 12:32:49 10° W 12:42:41 60° S 12:52:19 10° ESE daylight
06 Aug - 14:37:43 10° W 14:46:40 39° SSW 14:55:23 10° SSE daylight
06 Aug - 16:44:45 10° W 16:49:24 14° SW 16:53:59 10° SSW daylight
07 Aug - 08:04:37 10° SSW 08:13:01 31° SE 08:21:24 10° E daylight
07 Aug - 10:06:59 10° WSW 10:16:45 56° SSE 10:26:25 10° E daylight
07 Aug - 12:11:17 10° W 12:21:10 60° S 12:30:50 10° ESE daylight
07 Aug - 14:16:09 10° W 14:25:11 40° SSW 14:34:00 10° SSE daylight
07 Aug - 16:22:55 10° W 16:27:59 15° SW 16:33:00 10° SSW daylight
